Location: Torino
(45.0678°N, 7.6825°E)
Time: 10:33:16
(UTC+02:00)

Envisat - Visible Passes

Search period start: 21 May 2026 00:00
Search period end: 31 May 2026 00:00
Orbit: 761 x 762 km, 98.4° (Epoch: 20 May)

Date Brightness Start Highest point End Pass type
(mag) Time Alt. Az. Time Alt. Az. Time Alt. Az.
21 May 3.7 03:46:20 10° NNE 03:51:17 50° E 03:55:10 16° S visible
22 May 4.9 03:09:12 10° NE 03:13:12 23° E 03:16:56 11° SE visible
22 May 3.4 04:47:30 10° N 04:52:21 47° WNW 04:57:04 11° SW visible
23 May 3.0 04:09:31 10° NNE 04:14:37 81° ESE 04:18:50 15° S visible
24 May 4.2 03:32:00 10° NNE 03:36:41 37° E 03:40:36 14° SSE visible
24 May 4.1 05:11:07 10° N 05:15:30 30° WNW 05:19:51 10° SW visible
25 May 5.2 02:55:15 10° NE 02:58:32 17° E 03:01:48 10° SE visible
25 May 3.1 04:32:52 10° N 04:37:54 63° WNW 04:42:30 12° SSW visible
26 May 3.4 03:55:03 10° NNE 04:00:05 60° E 04:04:15 15° S visible
27 May 4.6 03:17:44 10° NE 03:22:04 27° E 03:26:02 11° SSE visible
27 May 3.7 04:56:23 10° N 05:01:05 39° WNW 05:05:45 10° SW visible
28 May 5.4 02:41:43 10° ENE 02:43:49 12° E 02:45:56 10° ESE visible
28 May 3.0 04:18:18 10° NNE 04:23:24 84° WNW 04:27:55 13° SSW visible
29 May 3.9 03:40:39 10° NNE 03:45:31 44° E 03:49:40 14° SSE visible
30 May 5.0 03:03:39 10° NE 03:07:25 21° E 03:11:09 10° SE visible
30 May 3.3 04:41:43 10° N 04:46:38 52° WNW 04:51:32 10° SW visible
